Location: Chochol
(49.7771°N, 14.9780°E)
Time: 17:52:58
(UTC+00:00)

STARLINK-1240 - Pass Details

Date: 09 April 2020
Orbit: 549 x 550 km, 53.0° (Epoch: 02 June)

Event Time Altitude Azimuth Distance (km) Brightness Sun altitude
Rises 18:25:11 0° 288° (WNW) 2,733 9.9 -7.0°
Reaches altitude 10° 18:27:26 10° 291° (WNW) 1,837 8.1 -7.4°
Maximum altitude 18:31:36 68° 15° (NNE) 600 3.8 -8.0°
Enters shadow 18:35:39 11° 99° (E) 1,794 5.6 -8.6°
